GFSSGP_500_spd_117.txt.gz
Wind_Speed
15 21 14 18 19 25 22 26 27 27 29 32 35 36 35 33 31 21 13 10 10 7 4 2 3 16 19 21 15 17 17 17 16 21 22 22 22 18 19 16 17 16 17 17 17 16 17 17 17
13 18 12 13 14 18 20 23 24 22 26 27 31 35 38 35 34 29 17 12 9 8 4 3 5 8 14 20 17 18 17 14 14 18 20 24 21 17 16 16 16 15 15 16 16 17 16 17 17
13 15 9 9 4 6 16 21 25 25 24 24 31 34 38 35 34 30 27 18 10 7 5 4 6 4 15 19 18 19 19 11 12 21 27 25 19 16 15 15 15 15 14 15 16 16 16 17 17
14 14 12 8 7 6 11 15 22 24 26 27 27 29 34 36 33 31 26 24 14 8 5 3 5 12 13 23 21 17 12 11 21 27 25 16 15 11 14 14 15 14 15 16 15 16 16 16 16
13 15 14 15 6 14 17 17 15 20 22 24 28 29 30 33 34 33 29 26 21 7 3 5 6 11 17 19 25 25 26 27 24 23 22 18 20 13 12 13 15 16 16 16 15 14 14 15 15
13 13 15 17 16 11 5 11 13 14 17 20 23 26 27 29 31 32 29 27 24 13 6 7 7 10 13 16 19 22 24 24 22 19 20 18 14 12 11 13 14 14 16 16 14 14 13 14 14
15 17 16 14 7 12 9 7 11 9 13 16 22 26 25 25 28 29 29 27 27 15 10 7 9 10 12 11 18 19 23 24 23 20 16 15 18 13 11 12 12 13 14 15 14 13 13 12 12
16 16 16 16 14 8 7 3 7 6 12 11 17 19 19 22 24 25 27 28 28 22 11 11 8 9 10 13 15 18 19 15 20 17 12 13 10 10 11 12 12 12 13 14 14 13 13 12 12
15 15 13 14 13 10 3 5 3 7 6 8 10 8 11 16 21 23 27 27 27 26 17 9 8 7 9 10 13 16 17 16 21 17 15 16 16 15 15 13 12 13 12 13 13 13 14 13 12
12 12 11 10 10 10 10 9 4 4 5 5 5 12 7 9 18 21 24 25 27 27 21 12 9 7 7 10 10 12 16 18 18 16 15 16 15 14 14 13 13 12 12 12 12 13 12 12 11
9 10 12 12 11 10 9 10 7 10 12 7 6 3 5 11 15 18 20 21 24 25 25 20 12 8 7 6 9 10 11 16 19 17 15 13 12 13 13 13 13 14 14 13 13 14 13 12 10
8 8 9 13 12 11 9 9 10 12 14 15 10 8 7 9 9 11 16 18 17 20 22 19 18 11 8 7 7 10 11 14 18 18 22 18 14 13 12 12 12 13 14 14 13 13 13 13 12
7 8 6 8 11 12 12 11 9 11 14 14 14 7 4 10 11 9 10 14 15 14 17 21 20 15 11 7 3 7 11 14 15 17 17 20 17 17 15 15 14 13 12 12 13 13 13 12 13
11 11 9 8 7 8 10 13 13 12 12 12 14 8 5 2 6 11 10 8 9 10 12 14 17 18 16 9 5 2 4 9 15 18 19 20 20 19 17 17 16 15 14 12 12 13 14 13 13
15 15 14 11 8 7 9 11 9 9 9 10 12 9 3 8 4 8 8 4 3 5 7 8 10 13 17 16 9 3 1 3 14 14 19 21 22 21 20 19 17 16 16 16 15 15 14 16 16
18 16 14 10 7 5 9 14 14 9 7 7 7 6 9 7 10 7 6 3 11 9 4 6 9 11 13 15 16 9 5 3 3 6 18 21 23 23 20 19 19 19 18 18 18 18 18 19 19
17 17 13 10 11 11 9 13 20 19 15 12 9 8 9 11 12 11 12 9 9 11 8 5 5 7 8 10 12 13 9 6 1 1 5 6 21 21 23 22 20 18 19 20 20 21 21 21 21
15 14 14 12 14 15 16 13 14 17 21 18 12 11 11 15 16 16 18 19 23 17 14 6 4 3 3 4 6 9 10 8 3 3 1 1 6 21 19 18 18 18 19 22 22 21 21 22 22
14 13 12 14 16 17 18 17 18 17 14 16 16 11 12 16 17 20 21 31 17 12 17 14 9 7 6 4 2 1 4 7 7 2 2 3 2 8 14 13 12 15 18 20 21 22 24 24 25
12 12 13 13 13 13 16 15 15 14 11 10 13 14 12 16 19 21 26 26 29 19 20 19 18 16 12 10 11 7 4 5 5 5 2 1 3 7 10 10 9 10 11 14 17 20 22 24 25
10 12 13 13 10 14 16 16 12 9 12 13 15 15 16 16 17 24 26 28 29 25 24 27 26 25 23 17 16 13 10 8 7 4 1 1 1 3 6 8 9 8 9 11 13 17 20 22 25
14 15 15 16 14 15 17 14 14 13 15 13 14 14 16 16 16 19 27 35 35 32 26 30 29 28 29 26 22 20 17 16 13 11 7 5 2 2 2 4 7 8 9 11 13 16 21 22 24
15 16 17 17 14 14 18 18 16 17 17 16 15 17 18 20 24 23 23 29 32 28 33 33 34 32 35 29 30 24 23 21 20 17 14 12 9 5 4 4 5 7 9 11 14 18 21 24 24
17 17 20 19 18 17 19 20 13 18 17 18 17 17 19 19 22 25 26 28 30 37 39 41 41 40 40 36 33 31 25 26 24 20 21 18 15 10 9 7 7 8 9 11 13 15 17 21 24
19 20 24 24 24 23 24 25 20 19 16 15 17 19 20 21 24 28 33 34 35 33 35 38 45 48 48 46 41 38 34 31 29 27 27 25 20 15 14 12 10 8 9 12 14 16 20 27 30
24 24 26 31 29 27 27 28 25 23 22 19 19 18 20 24 27 28 28 30 33 35 36 39 39 40 49 56 49 43 40 34 31 34 32 29 24 20 19 15 15 14 12 12 14 16 21 21 18
27 29 32 34 34 32 32 30 29 27 25 25 23 21 25 29 29 30 29 27 31 30 36 38 41 39 44 51 53 50 49 41 36 34 37 35 31 24 22 21 18 19 17 16 15 16 15 19 15
28 31 33 36 37 38 37 34 32 29 28 27 27 27 29 32 31 31 29 30 28 29 27 26 32 36 42 55 60 57 55 51 45 38 39 39 38 32 29 26 22 22 22 21 18 16 16 15 11
29 31 33 35 36 38 38 36 27 29 32 28 28 29 27 30 32 31 30 35 31 30 30 29 27 30 30 58 61 63 60 55 50 45 39 42 43 40 34 32 28 25 26 28 23 19 16 15 14
29 30 32 34 37 36 36 38 32 32 32 31 28 30 29 29 32 33 30 32 33 34 35 34 27 27 25 47 58 66 60 59 56 50 43 44 50 45 40 38 36 33 28 29 26 23 19 17 17

GFSSGP_500_spd_120.txt.gz
Wind_Speed
15 17 16 19 16 27 21 18 22 21 25 26 29 33 31 27 20 18 14 12 10 9 7 3 4 13 15 20 11 13 15 18 22 23 20 20 19 20 20 19 16 17 16 17 17 16 16 18 20
14 10 6 9 18 15 18 21 18 19 23 23 25 31 33 28 26 21 16 13 11 8 6 5 2 16 17 17 17 18 17 19 25 26 20 18 18 19 19 19 17 17 17 17 16 17 16 17 19
10 8 2 1 13 10 14 18 18 17 19 23 27 28 30 30 25 23 21 15 10 8 6 6 4 12 18 22 20 18 19 18 23 26 24 20 20 17 19 19 17 17 17 17 17 17 17 16 17
12 9 9 11 13 5 9 14 13 16 18 21 23 26 27 29 27 24 22 16 9 6 5 5 6 3 14 22 21 21 18 19 19 25 25 24 20 16 16 17 17 17 17 18 17 17 17 16 16
19 19 19 8 13 12 11 7 9 15 19 24 24 24 25 27 26 24 23 17 9 6 7 5 7 10 10 21 21 22 23 19 18 25 24 23 18 15 15 16 16 16 17 17 17 17 17 16 16
21 19 16 12 9 4 4 8 11 13 17 20 22 19 22 26 26 25 25 20 9 9 9 5 7 9 7 28 23 26 24 24 23 27 25 25 18 16 15 16 16 16 18 17 16 16 17 16 15
19 20 16 11 6 7 6 8 10 12 8 14 17 18 19 23 26 27 28 24 10 13 10 7 4 6 8 23 29 30 31 29 26 26 23 28 19 18 16 16 16 16 18 17 17 16 16 15 15
17 17 15 12 6 7 7 7 6 8 7 10 12 14 16 20 23 26 28 27 17 16 12 10 6 5 7 13 15 25 27 24 23 23 22 21 19 19 15 15 16 17 18 17 16 16 16 15 14
13 14 13 11 8 4 3 8 7 7 3 7 9 11 14 17 21 24 27 28 21 16 15 10 8 8 7 10 11 13 19 22 22 19 18 19 21 15 14 14 15 17 17 18 16 14 14 15 14
9 11 12 10 9 8 5 4 7 10 8 6 6 8 11 13 15 21 25 26 24 18 15 14 11 8 9 10 11 12 10 15 21 15 19 19 17 16 15 15 15 16 17 17 16 15 14 14 14
8 8 8 9 10 9 8 8 9 12 10 9 5 6 6 8 10 15 19 22 23 20 17 14 12 10 8 10 12 12 13 13 15 12 15 21 23 20 17 16 16 16 17 17 18 17 16 15 13
8 9 8 8 8 9 8 9 10 12 14 16 9 5 3 5 6 11 14 16 19 21 17 16 13 11 8 8 11 12 13 15 16 14 11 11 16 19 15 16 16 16 15 15 16 16 15 14 14
9 11 9 9 8 9 9 9 9 10 10 13 12 4 8 5 3 7 11 12 13 15 16 17 15 10 10 8 8 11 13 12 14 16 15 14 10 12 12 11 14 14 13 13 13 14 15 15 15
10 12 12 10 8 8 9 11 8 8 7 9 9 4 2 6 4 7 7 9 10 10 11 12 14 14 9 8 7 5 6 13 15 16 16 17 19 17 15 14 14 14 13 14 14 14 14 15 16
11 12 11 10 6 4 9 9 9 10 9 7 7 7 3 1 7 11 8 4 7 8 7 8 12 13 15 9 7 7 4 5 13 16 17 18 20 20 19 19 18 17 16 15 15 15 16 16 16
13 11 12 7 7 7 7 15 10 9 8 8 5 5 7 8 11 12 12 8 10 8 8 8 9 11 11 13 10 5 4 1 6 10 14 20 22 22 23 21 19 19 18 19 18 18 19 18 19
10 9 9 7 6 7 8 12 13 11 6 5 9 9 10 12 15 16 13 11 12 10 7 7 7 7 8 7 9 8 5 4 5 6 5 23 24 26 25 24 21 21 20 20 22 21 20 21 21
13 10 9 9 9 6 9 9 9 10 11 8 11 10 10 18 16 16 17 16 16 13 13 9 10 8 5 3 3 4 6 4 3 5 5 4 10 27 26 26 23 21 20 20 22 23 23 23 22
13 9 8 10 11 14 11 12 11 11 11 11 11 12 13 12 15 17 20 23 24 16 20 16 14 14 12 10 7 3 0 3 4 1 3 5 3 13 23 22 21 21 22 22 22 23 23 24 23
10 8 9 10 11 11 12 12 13 12 11 11 15 14 14 15 15 17 22 27 24 22 20 16 22 20 18 16 17 14 11 3 3 3 1 1 4 3 12 15 16 19 21 21 22 23 24 24 26
11 11 12 11 12 13 13 12 12 13 13 12 13 12 13 12 13 18 23 25 25 22 22 28 26 27 24 32 22 20 17 11 10 9 5 3 3 5 9 13 15 14 15 17 18 20 22 23 24
15 14 14 13 11 7 11 7 18 14 15 16 15 15 17 17 17 14 20 24 30 31 31 31 29 32 31 31 24 24 23 18 21 15 9 7 5 5 6 10 13 14 14 14 16 18 20 20 23
16 16 16 14 13 12 15 12 14 14 16 17 18 18 17 18 19 20 21 22 27 31 33 35 35 32 36 38 36 31 21 24 27 20 17 14 12 9 8 7 8 11 13 14 13 13 15 18 21
17 17 18 18 16 15 17 16 9 15 18 18 19 19 19 20 21 24 25 27 31 34 35 37 41 41 42 40 38 32 35 28 29 24 30 19 19 16 13 11 8 7 8 8 9 10 12 13 16
18 18 12 14 11 13 23 21 14 20 20 20 19 19 20 22 25 27 30 33 37 37 39 40 42 43 47 46 45 42 39 36 32 33 31 25 24 22 20 17 14 11 9 8 9 11 13 15 17
22 23 23 22 17 16 30 25 24 22 21 20 16 19 20 23 27 30 32 35 36 38 42 43 43 47 52 52 51 49 46 45 40 40 35 30 30 28 26 22 19 16 14 13 11 11 14 16 18
29 25 27 29 31 30 22 26 25 22 23 19 20 21 23 25 28 31 33 35 39 41 42 39 39 46 50 47 48 55 55 53 49 43 41 37 34 33 29 27 23 21 18 16 14 11 13 16 17
26 30 28 28 27 24 16 32 18 25 25 24 25 26 28 29 31 32 32 35 38 41 38 40 44 41 47 43 49 49 53 63 56 50 47 38 35 36 35 31 30 25 21 18 16 13 13 14 19
30 29 26 27 30 31 29 19 32 27 28 28 27 30 32 33 34 36 36 36 38 42 45 39 40 42 43 34 39 46 52 60 62 61 50 43 41 38 38 37 35 32 26 22 20 18 16 12 13
28 28 28 29 28 32 33 30 30 29 30 28 26 29 30 34 35 37 38 39 39 42 47 42 39 39 38 37 36 34 46 62 66 56 55 50 49 48 40 41 42 37 32 28 24 24 22 16 14

GFSSGP_500_spd_126.txt.gz
Wind_Speed
12 6 14 28 22 30 10 16 19 15 13 12 12 9 7 5 3 2 2 1 5 5 4 5 11 11 8 12 9 16 27 33 29 25 23 24 23 21 20 19 21 21 19 17 17 18 19 18 18
11 2 10 36 34 14 11 18 17 19 20 16 15 13 10 7 5 6 4 3 2 6 6 5 9 13 14 11 10 11 12 33 33 25 23 21 25 23 20 17 17 19 18 15 18 19 18 18 17
8 5 3 22 32 10 15 5 28 19 19 17 15 15 13 13 10 7 3 1 1 5 5 4 9 12 15 13 7 11 18 31 36 27 24 23 22 22 20 18 16 17 18 16 17 19 19 18 17
5 10 27 34 11 13 18 11 15 16 20 21 17 11 17 15 16 14 5 1 1 4 6 7 5 11 12 9 12 12 11 27 32 27 27 24 21 19 20 19 16 16 16 17 17 17 19 17 15
18 23 21 25 8 12 15 17 15 13 16 8 15 20 19 22 22 19 11 2 6 4 7 9 8 3 10 12 12 11 10 16 28 25 26 24 22 20 19 19 17 15 15 17 16 17 17 16 15
24 34 30 21 14 14 14 13 20 10 12 21 20 17 22 22 21 20 15 7 8 7 8 10 9 5 12 15 12 9 9 15 29 26 26 25 21 21 19 19 18 15 15 15 16 16 17 16 15
25 24 16 9 16 12 15 12 8 11 14 19 21 18 18 19 21 21 16 15 8 8 8 10 10 11 16 13 19 15 14 13 25 26 24 25 22 20 19 17 17 18 16 16 16 15 16 16 14
20 24 12 8 19 9 9 10 9 10 18 19 14 16 15 19 21 21 17 14 10 9 9 9 12 15 7 16 17 19 17 20 19 23 22 24 21 20 19 18 18 17 17 16 16 16 16 16 14
13 22 10 5 5 8 11 7 12 16 14 21 11 16 16 15 17 18 19 13 12 10 10 9 10 13 15 3 14 19 22 21 20 20 22 24 23 22 22 21 19 19 17 16 16 16 15 15 15
13 19 6 6 6 8 9 10 12 10 9 13 16 12 11 11 11 14 16 16 12 10 10 10 8 9 10 9 13 20 22 24 24 27 26 25 22 21 20 19 20 19 19 18 16 16 16 16 15
10 7 5 7 9 9 10 10 9 4 9 12 17 11 9 8 9 10 13 16 16 13 11 9 7 4 4 6 8 11 19 25 25 24 26 23 18 17 18 19 19 19 20 19 18 17 17 17 16
7 6 4 5 7 9 8 9 10 10 6 3 13 8 8 6 8 8 9 12 15 15 13 11 7 6 2 3 4 6 4 11 19 18 24 19 18 19 18 18 17 19 20 20 19 19 19 18 16
4 6 7 7 7 6 8 9 9 8 7 3 9 9 5 5 8 6 8 9 11 13 14 14 9 7 5 1 2 3 3 2 2 1 4 23 17 17 16 17 17 17 17 18 19 19 19 18 17
7 8 7 7 7 7 7 8 7 8 8 5 5 14 5 7 6 8 6 7 9 12 12 12 10 7 5 2 0 4 3 2 5 5 4 2 3 18 22 19 18 15 15 15 18 19 19 18 18
8 9 5 5 6 8 10 3 4 10 9 6 3 9 14 5 8 6 8 3 9 12 10 8 9 8 4 2 2 3 4 6 7 7 6 6 6 8 8 19 24 21 19 15 15 16 17 17 17
8 16 11 15 8 5 6 5 20 9 9 6 5 10 11 11 8 7 7 8 11 11 11 8 6 6 6 4 0 2 2 4 5 10 11 9 8 9 9 5 16 21 20 20 13 16 17 18 18
18 7 6 12 7 4 2 1 19 11 12 10 11 8 11 16 13 12 10 8 11 9 11 8 9 7 5 5 3 2 3 4 3 6 10 10 11 14 15 14 13 14 13 18 17 17 18 19 19
17 11 5 8 12 7 5 6 18 9 9 11 10 13 16 17 16 10 14 15 13 11 11 10 11 14 12 9 8 7 5 5 6 7 8 8 11 11 20 21 20 21 20 19 20 20 20 20 21
14 15 11 10 4 6 7 11 16 9 13 14 11 12 14 15 14 13 17 19 18 13 12 13 17 17 18 17 13 11 8 6 6 6 11 12 10 11 13 25 26 24 24 23 23 22 21 24 26
10 9 4 10 3 5 4 6 13 13 16 18 14 15 16 14 16 14 18 21 24 19 16 17 18 20 19 18 18 20 21 16 15 13 10 11 11 11 11 18 26 26 27 24 22 22 23 25 26
5 5 8 10 10 9 8 11 19 27 27 20 12 12 15 16 16 16 15 22 26 25 21 22 23 24 25 25 25 24 25 24 22 22 18 17 16 13 12 12 17 24 25 25 25 25 25 26 24
1 16 8 8 4 6 9 16 25 23 27 28 20 11 9 18 20 18 15 17 26 29 26 27 27 28 31 33 34 27 25 29 32 21 29 18 17 14 13 13 11 18 21 21 21 21 23 23 23
15 5 8 7 7 6 7 6 13 15 9 10 21 30 19 17 20 21 22 20 20 22 26 32 31 33 37 39 40 36 30 31 31 33 27 27 19 23 15 13 14 11 16 17 16 16 18 19 19
12 10 7 11 9 7 9 7 7 10 9 12 26 42 31 25 23 22 23 24 25 25 24 29 33 33 37 38 41 42 40 39 38 35 37 35 32 25 23 18 13 10 11 13 13 12 12 13 12
9 8 9 9 14 14 8 12 18 26 29 32 38 43 40 34 29 20 21 25 28 30 31 32 32 36 39 43 47 47 46 46 46 43 37 40 43 37 23 21 16 11 8 9 10 9 7 6 5
11 15 8 8 8 13 13 13 20 28 31 28 29 33 37 36 32 24 25 23 28 32 35 37 39 39 41 43 47 49 48 46 48 41 42 45 48 45 33 27 21 16 16 13 11 9 6 7 7
18 14 14 14 12 11 11 16 26 23 29 35 28 24 27 29 28 26 27 28 26 30 33 36 38 42 45 46 48 48 49 53 50 47 48 49 56 46 33 30 26 20 21 19 16 14 12 11 10
18 21 19 13 11 9 8 13 19 26 30 39 40 37 32 29 24 24 28 29 27 25 30 37 42 45 47 50 51 47 44 44 48 53 54 57 50 43 45 42 37 27 26 24 21 18 15 14 15
18 15 15 10 11 14 11 10 23 29 36 41 41 43 38 28 30 29 29 31 30 30 31 33 36 41 47 50 52 52 46 42 44 48 50 53 56 50 49 47 39 37 32 30 25 24 20 17 16
24 26 25 24 18 13 22 20 25 33 37 41 44 37 36 34 29 34 34 34 35 35 38 41 40 45 48 50 52 50 47 44 44 45 46 48 53 52 51 50 54 57 42 35 32 29 25 22 22

GFSSGP_500_spd_129.txt.gz
Wind_Speed
14 18 24 22 24 23 10 21 17 27 18 22 15 11 12 12 10 5 2 2 1 1 2 3 12 13 13 14 14 31 31 27 25 23 22 21 19 17 18 18 19 19 19 18 19 20 21 20 20
5 11 17 26 25 12 20 21 23 19 20 20 19 18 14 8 6 5 2 3 2 4 1 4 6 11 9 9 13 27 31 28 28 24 21 21 20 19 17 16 18 19 17 16 18 19 19 19 19
6 15 27 28 22 21 26 16 10 20 18 23 21 16 19 16 11 3 3 3 3 3 1 3 5 11 12 11 12 14 18 30 29 25 23 21 21 20 18 17 17 17 15 16 16 18 17 17 18
6 8 28 26 28 24 22 14 16 23 23 18 22 21 24 25 20 12 5 4 4 5 3 4 3 10 14 12 15 12 12 22 31 27 22 22 21 19 18 16 16 16 15 16 16 18 17 17 17
14 23 23 27 22 20 15 18 6 19 18 19 18 21 26 30 25 16 8 4 5 7 6 3 8 8 11 11 12 7 10 14 34 30 24 23 20 20 18 17 16 16 16 17 17 17 16 15 16
22 15 39 28 26 18 15 18 23 23 19 18 20 24 28 29 28 19 14 11 7 7 7 7 5 5 11 10 9 10 10 14 31 28 24 22 21 20 19 17 16 15 16 17 17 17 16 15 15
24 33 36 30 20 13 17 20 18 19 18 21 20 24 25 27 29 20 18 14 11 10 9 12 13 7 12 11 11 9 7 7 25 26 26 22 21 19 18 17 16 16 16 16 16 16 16 16 13
26 30 28 14 3 8 11 13 9 18 16 21 19 19 19 22 25 25 18 15 15 14 12 12 16 13 8 5 7 8 9 10 21 28 26 25 21 21 18 17 16 15 15 15 16 15 15 14 13
25 25 14 3 7 5 8 8 18 14 18 19 18 14 14 18 21 24 22 20 17 16 16 13 13 19 14 4 7 7 10 12 16 26 26 24 21 20 19 18 16 15 14 14 14 15 15 14 12
14 15 8 6 4 7 10 9 10 9 21 22 20 13 14 15 19 20 23 21 20 19 17 16 13 13 18 11 6 9 11 15 16 20 22 23 22 20 19 20 19 18 17 16 15 16 16 15 13
9 6 2 4 5 7 8 10 9 8 15 20 16 13 13 13 15 18 18 20 22 21 21 18 16 12 14 16 11 6 14 19 20 19 21 23 22 21 19 19 18 19 18 17 16 16 16 15 14
7 3 4 6 8 7 7 9 10 7 9 18 16 13 10 11 13 12 16 17 18 20 22 18 16 14 12 11 11 11 5 15 17 20 20 20 21 21 20 18 18 18 19 18 17 16 14 14 13
5 3 6 7 7 7 7 7 7 8 13 19 19 12 10 8 11 10 11 15 16 19 20 19 15 12 10 8 7 8 8 7 12 7 15 17 20 14 23 20 16 16 18 19 18 17 15 15 15
8 8 7 4 11 10 10 8 5 10 7 20 21 15 10 8 7 8 8 8 14 18 17 17 15 13 9 8 6 4 4 3 3 1 1 4 20 15 13 20 20 13 16 16 17 16 15 15 15
11 12 2 8 21 17 15 2 6 11 10 11 20 22 12 10 10 7 4 4 10 15 17 14 16 16 14 9 6 5 2 2 3 4 4 5 4 12 15 16 20 20 17 16 15 14 16 16 16
18 17 11 14 20 8 11 10 12 11 14 8 14 21 21 15 13 11 9 5 5 8 12 9 13 15 12 11 9 4 3 2 4 6 8 8 7 6 4 15 22 24 19 17 14 16 15 15 16
19 17 6 13 20 4 5 9 17 18 14 11 10 17 22 21 16 11 10 9 7 6 6 7 8 9 12 14 11 10 9 6 3 9 7 8 9 10 10 10 10 18 27 22 20 19 14 15 16
12 16 12 15 8 6 4 13 14 14 15 15 12 16 19 19 19 15 9 10 9 9 6 4 9 10 12 13 13 9 8 6 9 6 5 6 8 12 14 16 15 19 18 18 30 27 21 17 18
13 20 18 11 13 6 11 16 14 11 15 16 22 15 14 15 13 17 16 13 17 12 10 9 7 11 14 14 13 14 13 14 13 8 11 12 11 11 13 16 21 23 22 21 20 25 21 21 22
7 14 14 4 14 3 8 10 19 10 20 25 26 18 15 13 15 16 18 17 13 17 16 15 14 13 16 20 17 16 17 16 15 16 14 14 18 13 13 15 16 27 27 24 23 23 26 25 24
5 8 13 14 4 2 1 6 17 22 27 28 17 8 11 12 13 17 20 20 16 15 19 21 21 21 20 21 23 21 21 23 21 17 19 17 17 19 15 14 16 17 29 29 27 24 23 25 23
13 10 11 5 7 7 3 5 21 21 25 29 17 17 16 15 21 23 21 21 17 16 19 23 26 25 27 28 30 29 29 28 23 22 21 27 20 21 17 14 17 20 18 27 26 25 24 26 26
9 4 2 2 5 10 4 5 15 14 25 30 33 31 20 19 23 21 23 21 22 18 15 20 26 30 32 33 35 35 33 31 32 27 24 26 28 23 20 21 20 19 16 18 21 21 20 24 23
8 4 3 3 5 1 8 8 16 18 21 29 37 41 38 21 13 14 18 24 22 21 21 21 21 25 29 32 37 39 37 36 39 29 30 33 31 29 28 25 23 20 17 20 21 22 17 18 17
8 9 8 5 2 6 11 4 11 15 20 28 35 38 35 34 21 15 10 10 21 23 26 27 28 28 28 30 33 38 40 42 41 40 39 36 37 34 32 33 29 24 20 15 13 15 17 16 15
13 10 7 11 8 2 6 7 18 22 27 29 32 38 38 32 31 23 17 15 16 22 23 26 28 31 32 35 37 38 40 43 44 43 42 39 38 40 40 40 35 28 27 19 17 15 14 15 15
20 13 15 8 12 13 4 13 23 22 21 26 32 36 41 34 31 28 26 27 23 19 20 23 26 28 33 36 39 42 46 46 46 43 42 41 39 38 42 41 37 35 38 28 24 21 18 18 17
16 17 15 14 12 14 12 19 15 22 29 35 40 42 39 36 31 26 27 27 30 27 26 26 28 31 32 37 41 46 50 53 53 49 43 39 37 39 44 45 41 32 38 34 31 27 25 23 20
20 14 16 12 12 16 19 17 19 20 26 33 39 42 43 39 33 29 29 33 32 30 30 31 34 36 36 36 42 48 50 51 51 50 48 41 40 40 43 44 43 39 40 37 41 37 33 29 26
20 21 25 24 17 20 22 19 28 29 29 28 36 43 46 36 32 32 32 31 34 37 36 35 38 40 39 40 42 43 47 50 50 47 45 44 39 40 43 45 47 46 48 47 47 43 41 37 31

GFSSGP_500_spd_135.txt.gz
Wind_Speed
12 15 21 25 21 30 28 26 28 30 29 35 34 31 22 17 10 5 5 4 6 4 2 5 6 7 9 15 19 21 26 24 24 22 21 16 18 19 19 18 19 18 15 14 14 13 15 17 16
3 11 18 32 32 19 32 30 25 26 28 30 30 31 24 19 9 6 6 6 5 4 3 3 7 13 18 20 19 17 26 24 21 21 20 16 16 19 18 16 17 17 15 14 13 12 12 14 15
20 10 18 23 25 25 26 27 26 29 27 26 27 29 21 16 15 13 10 6 3 3 4 4 6 8 14 19 17 20 22 25 23 21 21 19 18 19 17 15 16 17 15 13 12 12 11 12 14
15 19 24 21 22 24 26 26 28 29 26 21 25 27 23 18 22 17 13 8 6 8 9 3 5 11 13 14 23 26 25 28 26 23 20 21 19 18 18 16 16 15 14 13 11 11 10 10 11
13 17 22 22 23 26 25 24 24 26 26 24 24 27 25 22 24 20 15 10 10 12 11 6 5 11 11 15 24 25 28 25 25 23 20 19 18 18 17 16 16 14 13 13 12 11 9 9 9
12 9 14 22 22 23 24 22 22 23 25 23 20 22 25 28 25 21 16 14 13 12 10 3 5 10 14 15 15 24 19 23 21 26 24 20 17 14 14 15 13 13 14 13 12 11 9 8 7
12 14 15 19 20 19 19 22 24 23 23 23 20 19 23 28 29 25 20 18 15 14 13 4 9 11 14 11 13 11 11 17 27 29 26 17 15 14 12 12 13 12 13 13 13 12 10 7 7
7 8 11 16 16 16 15 22 23 24 21 20 21 20 18 23 27 26 23 21 18 18 16 17 10 14 14 16 12 7 5 14 26 32 25 16 16 15 13 12 12 12 13 13 13 12 11 9 6
2 10 17 16 12 12 14 18 20 23 18 19 20 19 17 19 22 23 24 23 21 20 17 17 10 10 14 12 11 11 7 9 24 30 26 24 22 15 14 13 12 12 13 12 12 12 11 11 8
2 13 16 16 13 10 10 15 18 19 16 17 17 16 17 16 18 19 22 23 25 23 20 17 17 13 12 13 12 10 6 12 20 22 22 18 19 15 14 13 12 12 13 13 13 13 13 12 11
3 9 12 12 10 7 9 11 14 17 16 14 17 14 15 17 17 16 18 20 22 26 22 19 21 19 12 10 8 8 7 7 9 12 22 16 19 19 11 12 12 12 12 13 14 14 14 12 12
6 6 12 8 9 5 8 10 13 18 17 10 16 14 14 16 18 18 17 18 20 23 26 23 20 19 19 16 10 10 11 8 6 5 5 15 12 17 15 14 15 11 14 14 13 13 14 13 14
4 6 3 3 6 7 9 6 10 15 19 15 14 14 15 16 16 16 16 18 19 20 24 27 25 21 17 15 18 15 13 9 7 2 9 11 17 14 18 21 14 16 15 15 13 14 13 14 14
2 3 2 1 2 7 8 4 7 17 15 19 20 14 13 14 14 12 14 15 17 18 20 22 25 26 22 19 17 16 13 6 5 3 2 3 8 14 12 23 25 18 14 16 16 16 15 15 14
1 8 1 4 1 6 11 8 14 15 22 23 22 20 15 12 12 9 10 11 12 14 16 17 20 21 22 21 19 16 14 12 11 8 8 6 8 7 12 14 20 28 17 17 17 17 16 16 15
3 8 2 5 7 8 13 11 13 15 21 22 22 19 15 10 8 8 6 8 7 7 9 11 13 16 16 16 18 18 17 15 13 11 8 7 9 11 9 11 18 22 22 19 19 18 19 18 18
0 5 7 0 9 12 15 10 10 13 19 21 24 20 15 12 11 12 7 4 7 4 4 5 7 8 11 12 12 12 13 13 14 14 12 8 9 10 12 13 8 22 25 29 25 22 19 18 17
8 10 3 3 7 9 12 12 9 10 17 19 22 25 23 19 17 13 10 5 3 5 6 7 3 1 2 5 6 6 6 8 10 9 10 11 8 7 11 11 13 12 14 17 29 24 22 20 19
15 17 7 3 5 10 16 10 5 3 12 16 18 19 22 19 15 14 11 10 5 4 7 8 9 6 7 5 4 3 4 5 5 6 6 6 8 9 8 7 8 11 14 14 18 27 24 24 23
16 14 10 9 12 12 16 15 9 1 7 11 16 18 19 20 17 12 13 11 7 4 3 5 8 9 10 11 9 8 9 10 9 12 12 12 10 10 11 11 12 9 10 12 14 21 21 25 32
14 17 17 16 13 11 17 14 12 6 3 3 7 11 17 19 19 16 16 18 14 9 5 4 6 10 12 15 14 15 15 15 17 17 14 17 17 14 15 16 13 14 12 14 14 16 24 28 26
4 9 13 18 19 16 17 20 20 14 7 4 6 10 16 18 19 22 23 26 22 15 11 6 6 9 12 14 18 19 16 14 17 20 21 21 23 22 20 19 19 17 16 17 19 18 19 28 31
6 12 11 13 16 19 22 22 21 18 13 11 9 11 17 17 20 23 24 26 26 18 13 13 11 9 12 15 19 20 15 21 17 21 19 21 22 25 26 27 25 21 23 24 22 21 20 22 31
9 8 10 14 13 13 18 21 21 22 17 16 11 13 17 19 22 23 22 24 22 19 19 17 19 16 16 17 19 21 22 24 24 25 26 23 24 25 30 30 31 30 30 29 28 27 24 24 24
11 11 13 16 13 12 18 21 21 18 15 16 13 18 21 23 22 22 23 22 17 19 19 21 22 22 22 23 23 24 26 27 28 29 30 32 33 32 28 31 36 38 36 33 34 34 32 26 27
13 9 12 17 20 18 23 27 26 23 22 19 17 20 21 24 24 21 26 23 20 20 22 23 21 22 27 26 27 29 31 31 31 32 34 36 38 39 38 37 35 35 39 42 39 41 41 38 30
15 14 13 17 18 19 20 23 24 22 25 26 25 23 25 26 28 27 27 23 22 22 23 23 24 23 23 28 33 34 35 36 37 39 39 40 40 41 43 44 43 38 38 42 47 48 50 43 34
15 12 13 14 16 18 23 25 26 25 27 25 22 25 30 32 31 31 25 23 22 24 26 28 29 27 27 28 31 32 36 41 42 43 43 44 46 47 48 48 47 45 42 42 45 51 51 44 35
20 16 15 15 18 16 18 25 26 25 26 27 29 32 35 38 37 29 27 27 25 26 29 32 33 34 35 36 37 38 39 41 42 43 46 48 50 49 49 50 49 48 47 46 45 49 53 49 46
23 25 21 23 20 20 18 21 25 27 29 32 34 38 39 37 36 36 37 39 36 36 33 35 38 38 39 41 42 42 44 47 47 47 47 50 51 52 52 52 51 50 49 48 47 48 52 55 51

GFSSGP_500_spd_138.txt.gz
Wind_Speed
18 24 22 21 21 25 27 30 30 27 27 29 26 20 21 11 9 9 8 8 9 8 5 3 5 2 9 13 20 26 26 25 21 17 15 18 18 17 18 19 20 17 18 18 17 15 15 16 16
18 19 19 14 21 21 27 31 30 27 28 30 30 24 23 16 12 11 11 10 10 8 6 7 6 8 6 13 17 20 22 24 24 19 17 19 20 17 17 17 18 17 17 15 16 13 13 14 15
9 15 19 18 19 22 25 28 30 30 26 30 30 28 22 17 14 13 14 14 9 6 6 9 13 12 11 21 20 19 25 24 25 22 19 19 20 19 17 16 17 17 15 15 14 12 12 12 14
16 19 21 22 22 23 23 25 30 30 26 28 31 27 21 19 18 16 15 14 9 8 8 10 9 9 17 18 13 19 25 25 24 22 19 20 20 18 17 16 16 16 15 13 12 11 10 11 12
16 15 19 23 23 25 24 24 26 27 25 22 29 29 22 19 20 18 15 13 10 10 10 6 12 15 14 16 18 25 25 27 27 26 18 20 18 18 16 17 16 14 14 13 12 10 10 9 10
10 10 15 20 26 28 25 23 24 25 24 21 22 26 24 20 19 20 16 11 10 9 9 5 9 15 11 14 16 25 22 28 28 31 24 20 19 17 16 16 14 13 13 13 12 11 9 8 8
9 9 12 20 24 27 28 23 23 23 24 22 18 22 22 22 22 21 18 15 12 11 9 7 11 11 12 12 21 22 24 20 26 26 30 21 18 16 15 14 13 12 12 12 12 11 9 8 6
6 6 10 17 18 22 27 23 21 21 24 21 20 18 21 21 23 22 19 16 13 11 12 9 9 12 12 11 10 12 16 16 16 24 25 23 18 16 14 12 11 12 11 10 11 10 8 7 6
7 3 13 15 15 18 22 22 20 21 22 22 21 18 16 17 20 22 20 19 19 16 13 9 17 14 12 12 7 6 2 9 14 24 27 22 17 14 12 10 10 10 10 10 10 10 8 7 6
4 5 9 11 14 15 18 19 19 18 20 19 19 19 18 17 17 19 20 20 20 19 16 10 13 14 13 12 11 11 7 7 19 26 26 23 23 17 12 10 9 10 10 10 10 9 9 8 8
7 5 10 9 13 18 16 18 19 19 19 18 18 18 18 20 22 19 19 20 22 22 22 22 16 13 13 13 9 8 5 10 16 21 21 24 26 23 17 12 10 10 11 11 11 11 10 10 10
7 5 9 8 13 16 13 16 22 19 18 16 17 19 16 18 20 22 21 20 21 24 23 22 20 18 12 8 10 10 8 6 6 4 1 12 13 19 20 15 15 15 14 12 11 11 11 10 11
5 4 9 9 11 11 15 16 20 19 20 16 17 16 15 16 16 18 19 21 18 21 24 23 21 21 19 18 11 10 10 10 7 3 4 5 5 8 16 23 18 19 16 18 15 11 11 10 11
4 5 6 4 7 12 15 12 18 21 21 21 17 15 14 12 13 13 14 16 18 16 19 22 24 23 21 21 20 15 9 5 3 7 7 7 5 4 12 13 23 24 22 18 18 17 11 12 11
4 3 2 6 9 14 18 13 22 23 24 20 16 12 12 14 13 12 11 11 13 15 13 16 19 20 22 23 21 19 17 14 10 10 9 9 10 11 14 12 14 25 29 27 21 12 13 14 14
2 3 3 5 4 11 15 13 16 20 23 23 19 15 13 13 12 10 9 8 8 11 13 12 13 16 17 18 19 19 18 16 16 15 13 10 9 10 11 15 7 19 20 23 20 13 14 16 17
3 4 5 4 6 10 14 14 10 17 24 29 27 24 18 14 14 13 10 6 4 5 8 10 9 9 11 12 12 11 11 13 12 13 12 10 9 8 11 12 10 14 11 16 22 22 22 21 22
6 7 8 4 3 6 11 9 11 12 17 18 22 21 20 15 12 12 11 9 4 2 4 6 6 7 4 4 6 6 5 4 5 5 4 5 6 7 8 9 9 8 6 7 11 19 27 22 23
12 12 13 7 4 3 7 7 6 9 12 15 19 19 20 17 11 10 11 10 8 5 1 5 5 6 5 4 1 2 3 3 5 5 5 4 6 6 6 7 9 9 9 10 10 12 14 30 26
16 17 14 9 6 9 9 6 3 8 7 9 10 13 16 17 16 13 14 11 8 6 4 3 6 7 7 7 8 8 8 10 11 8 11 12 11 10 9 10 11 11 13 13 11 12 15 19 25
14 16 14 11 13 15 14 9 3 2 2 3 8 9 10 14 17 16 14 14 12 8 3 4 5 6 7 10 12 15 16 17 14 14 16 16 17 19 19 17 17 15 14 17 18 16 16 19 26
12 17 19 16 16 17 16 16 12 8 4 1 4 5 6 11 14 16 15 18 16 12 8 7 8 6 9 12 12 14 16 18 16 14 16 21 25 24 23 24 23 22 24 23 23 23 21 21 23
12 14 14 10 12 17 17 20 17 15 8 5 6 2 4 11 13 16 15 18 18 16 13 12 11 9 12 14 15 13 15 17 17 19 18 22 22 24 26 25 27 26 27 28 27 30 30 25 24
14 13 11 10 10 13 18 21 18 14 13 10 8 8 7 11 12 15 16 18 20 18 20 17 16 15 15 17 18 19 18 19 18 19 22 24 25 24 24 27 28 28 28 31 33 33 34 34 30
13 14 15 13 13 13 17 17 14 13 13 11 10 12 12 12 14 16 16 21 21 20 20 19 19 19 20 23 21 20 22 22 22 24 25 26 27 29 30 31 31 32 32 33 35 37 40 40 40
12 15 15 14 15 16 18 20 20 19 19 18 20 18 16 13 16 17 20 24 22 23 22 22 23 22 20 22 25 26 27 27 28 29 30 31 32 34 36 36 36 36 38 38 36 38 43 47 46
15 17 13 15 17 18 18 20 21 21 22 21 19 22 20 19 21 22 25 27 31 24 24 21 23 26 26 27 24 24 27 30 33 33 34 35 36 37 38 39 40 41 42 42 43 43 40 48 49
14 17 19 17 16 15 16 16 18 20 23 25 25 24 22 23 24 27 30 32 27 24 24 26 30 31 29 27 29 32 34 35 35 36 38 42 43 44 44 44 45 46 46 46 46 45 45 46 49
19 20 19 19 15 15 15 16 16 19 21 22 23 23 24 26 30 33 32 29 27 27 29 31 34 36 37 36 35 33 34 37 39 41 41 42 44 47 49 50 50 50 51 50 50 48 48 48 46
19 20 17 18 21 18 17 14 16 17 17 19 22 25 28 30 30 30 29 31 32 34 36 37 38 39 40 40 39 40 42 44 44 46 48 49 51 52 52 52 52 52 53 53 54 52 50 49 48